Year,Month,Day,Hour,Minute,Value (Times are PST for temperature in C)
2012,07,01,00,00,14.00
2012,07,01,00,01,14.00
2012,07,01,00,02,14.00
2012,07,01,00,03,14.00
2012,07,01,00,04,14.00
2012,07,01,00,05,14.00
2012,07,01,00,06,13.90
2012,07,01,00,07,13.90
2012,07,01,00,08,13.90
2012,07,01,00,09,13.90
2012,07,01,00,10,13.90
2012,07,01,00,11,13.90
2012,07,01,00,12,13.90
2012,07,01,00,13,13.90
2012,07,01,00,14,13.80
2012,07,01,00,15,13.80
2012,07,01,00,16,13.80
2012,07,01,00,17,13.80
2012,07,01,00,18,13.80
2012,07,01,00,19,13.80
2012,07,01,00,20,13.80
2012,07,01,00,21,13.80
2012,07,01,00,22,13.80
2012,07,01,00,23,13.80
2012,07,01,00,24,13.80
2012,07,01,00,25,13.70
2012,07,01,00,26,13.70
2012,07,01,00,27,13.70
2012,07,01,00,28,13.70
2012,07,01,00,29,13.70
2012,07,01,00,30,13.70
2012,07,01,00,31,13.70
2012,07,01,00,32,13.70
2012,07,01,00,33,13.70
2012,07,01,00,34,13.70
2012,07,01,00,35,13.70
2012,07,01,00,36,13.70
2012,07,01,00,37,13.70
2012,07,01,00,38,13.70
2012,07,01,00,39,13.70
2012,07,01,00,40,13.70
2012,07,01,00,41,13.70
2012,07,01,00,42,13.70
2012,07,01,00,43,13.70
2012,07,01,00,44,13.80
2012,07,01,00,45,13.80
2012,07,01,00,46,13.80
2012,07,01,00,47,13.80
2012,07,01,00,48,13.80
2012,07,01,00,49,13.80
2012,07,01,00,50,13.80
2012,07,01,00,51,13.70
2012,07,01,00,52,13.70
2012,07,01,00,53,13.70
2012,07,01,00,54,13.70
2012,07,01,00,55,13.70
2012,07,01,00,56,13.70
2012,07,01,00,57,13.60
2012,07,01,00,58,13.60
2012,07,01,00,59,13.60
2012,07,01,01,00,13.60
2012,07,01,01,01,13.60
2012,07,01,01,02,13.60
2012,07,01,01,03,13.60
2012,07,01,01,04,13.60
2012,07,01,01,05,13.60
2012,07,01,01,06,13.60
2012,07,01,01,07,13.60
2012,07,01,01,08,13.60
2012,07,01,01,09,13.60
2012,07,01,01,10,13.60
2012,07,01,01,11,13.60
2012,07,01,01,12,13.60
2012,07,01,01,13,13.60
2012,07,01,01,14,13.50
2012,07,01,01,15,13.50
2012,07,01,01,16,13.50
2012,07,01,01,17,13.50
2012,07,01,01,18,13.50
2012,07,01,01,19,13.40
2012,07,01,01,20,13.40
2012,07,01,01,21,13.40
2012,07,01,01,22,13.40
2012,07,01,01,23,13.40
2012,07,01,01,24,13.40
2012,07,01,01,25,13.40
2012,07,01,01,26,13.40
2012,07,01,01,27,13.40
2012,07,01,01,28,13.40
2012,07,01,01,29,13.40
2012,07,01,01,30,13.40
2012,07,01,01,31,13.40
2012,07,01,01,32,13.40
2012,07,01,01,33,13.40
2012,07,01,01,34,13.50
2012,07,01,01,35,13.50
2012,07,01,01,36,13.50
2012,07,01,01,37,13.50
2012,07,01,01,38,13.50
2012,07,01,01,39,13.50
2012,07,01,01,40,13.50
2012,07,01,01,41,13.50
2012,07,01,01,42,13.50
2012,07,01,01,43,13.50
2012,07,01,01,44,13.40
2012,07,01,01,45,13.40
2012,07,01,01,46,13.40
2012,07,01,01,47,13.40
2012,07,01,01,48,13.40
2012,07,01,01,49,13.40
2012,07,01,01,50,13.40
2012,07,01,01,51,13.40
2012,07,01,01,52,13.40
2012,07,01,01,53,13.40
2012,07,01,01,54,13.40
2012,07,01,01,55,13.30
2012,07,01,01,56,13.30
2012,07,01,01,57,13.30
2012,07,01,01,58,13.30
2012,07,01,01,59,13.30
2012,07,01,02,00,13.30
2012,07,01,02,01,13.30
2012,07,01,02,02,13.30
2012,07,01,02,03,13.20
2012,07,01,02,04,13.20
2012,07,01,02,05,13.20
2012,07,01,02,06,13.10
2012,07,01,02,07,13.10
2012,07,01,02,08,13.10
2012,07,01,02,09,13.10
2012,07,01,02,10,13.00
2012,07,01,02,11,13.00
2012,07,01,02,12,13.00
2012,07,01,02,13,12.90
2012,07,01,02,14,12.90
2012,07,01,02,15,12.90
2012,07,01,02,16,12.90
2012,07,01,02,17,12.80
2012,07,01,02,18,12.80
2012,07,01,02,19,12.80
2012,07,01,02,20,12.80
2012,07,01,02,21,12.70
2012,07,01,02,22,12.70
2012,07,01,02,23,12.70
2012,07,01,02,24,12.70
2012,07,01,02,25,12.60
2012,07,01,02,26,12.60
2012,07,01,02,27,12.60
2012,07,01,02,28,12.60
2012,07,01,02,29,12.60
2012,07,01,02,30,12.60
2012,07,01,02,31,12.60
2012,07,01,02,32,12.50
2012,07,01,02,33,12.50
2012,07,01,02,34,12.50
2012,07,01,02,35,12.50
2012,07,01,02,36,12.40
2012,07,01,02,37,12.40
2012,07,01,02,38,12.40
2012,07,01,02,39,12.40
2012,07,01,02,40,12.40
2012,07,01,02,41,12.40
2012,07,01,02,42,12.30
2012,07,01,02,43,12.30
2012,07,01,02,44,12.30
2012,07,01,02,45,12.30
2012,07,01,02,46,12.30
2012,07,01,02,47,12.30
2012,07,01,02,48,12.30
2012,07,01,02,49,12.20
2012,07,01,02,50,12.20
2012,07,01,02,51,12.20
2012,07,01,02,52,12.20
2012,07,01,02,53,12.20
2012,07,01,02,54,12.20
2012,07,01,02,55,12.20
2012,07,01,02,56,12.20
2012,07,01,02,57,12.20
2012,07,01,02,58,12.20
2012,07,01,02,59,12.20
2012,07,01,03,00,12.20
2012,07,01,03,01,12.20
2012,07,01,03,02,12.20
2012,07,01,03,03,12.20
2012,07,01,03,04,12.20
2012,07,01,03,05,12.10
2012,07,01,03,06,12.10
2012,07,01,03,07,12.10
2012,07,01,03,08,12.10
2012,07,01,03,09,12.10
2012,07,01,03,10,12.00
2012,07,01,03,11,12.00
2012,07,01,03,12,12.00
2012,07,01,03,13,11.90
2012,07,01,03,14,11.90
2012,07,01,03,15,11.90
2012,07,01,03,16,11.90
2012,07,01,03,17,11.90
2012,07,01,03,18,11.90
2012,07,01,03,19,11.90
2012,07,01,03,20,11.90
2012,07,01,03,21,11.90
2012,07,01,03,22,11.80
2012,07,01,03,23,11.80
2012,07,01,03,24,11.80
2012,07,01,03,25,11.80
2012,07,01,03,26,11.80
2012,07,01,03,27,11.80
2012,07,01,03,28,11.80
2012,07,01,03,29,11.80
2012,07,01,03,30,11.80
2012,07,01,03,31,11.80
2012,07,01,03,32,11.80
2012,07,01,03,33,11.80
2012,07,01,03,34,11.80
2012,07,01,03,35,11.80
2012,07,01,03,36,11.80
2012,07,01,03,37,11.80
2012,07,01,03,38,11.80
2012,07,01,03,39,11.80
2012,07,01,03,40,11.80
2012,07,01,03,41,11.90
2012,07,01,03,42,11.90
2012,07,01,03,43,11.90
2012,07,01,03,44,11.90
2012,07,01,03,45,11.90
2012,07,01,03,46,11.90
2012,07,01,03,47,11.90
2012,07,01,03,48,11.90
2012,07,01,03,49,11.90
2012,07,01,03,50,11.90
2012,07,01,03,51,11.90
2012,07,01,03,52,11.90
2012,07,01,03,53,11.90
2012,07,01,03,54,11.90
2012,07,01,03,55,11.90
2012,07,01,03,56,11.80
2012,07,01,03,57,11.80
2012,07,01,03,58,11.80
2012,07,01,03,59,11.80
2012,07,01,04,00,11.80
2012,07,01,04,01,11.80
2012,07,01,04,02,11.90
2012,07,01,04,03,11.90
2012,07,01,04,04,11.90
2012,07,01,04,05,11.90
2012,07,01,04,06,11.90
2012,07,01,04,07,11.90
2012,07,01,04,08,12.00
2012,07,01,04,09,12.00
2012,07,01,04,10,12.00
2012,07,01,04,11,12.10
2012,07,01,04,12,12.10
2012,07,01,04,13,12.10
2012,07,01,04,14,12.10
2012,07,01,04,15,12.10
2012,07,01,04,16,12.20
2012,07,01,04,17,12.20
2012,07,01,04,18,12.30
2012,07,01,04,19,12.30
2012,07,01,04,20,12.30
2012,07,01,04,21,12.40
2012,07,01,04,22,12.40
2012,07,01,04,23,12.40
2012,07,01,04,24,12.40
2012,07,01,04,25,12.40
2012,07,01,04,26,12.40
2012,07,01,04,27,12.50
2012,07,01,04,28,12.50
2012,07,01,04,29,12.50
2012,07,01,04,30,12.50
2012,07,01,04,31,12.50
2012,07,01,04,32,12.50
2012,07,01,04,33,12.40
2012,07,01,04,34,12.40
2012,07,01,04,35,12.50
2012,07,01,04,36,12.50
2012,07,01,04,37,12.50
2012,07,01,04,38,12.50
2012,07,01,04,39,12.60
2012,07,01,04,40,12.60
2012,07,01,04,41,12.60
2012,07,01,04,42,12.60
2012,07,01,04,43,12.60
2012,07,01,04,44,12.60
2012,07,01,04,45,12.60
2012,07,01,04,46,12.60
2012,07,01,04,47,12.60
2012,07,01,04,48,12.60
2012,07,01,04,49,12.50
2012,07,01,04,50,12.60
2012,07,01,04,51,12.60
2012,07,01,04,52,12.60
2012,07,01,04,53,12.60
2012,07,01,04,54,12.60
2012,07,01,04,55,12.60
2012,07,01,04,56,12.60
2012,07,01,04,57,12.50
2012,07,01,04,58,12.50
2012,07,01,04,59,12.50
2012,07,01,05,00,12.50
2012,07,01,05,01,12.50
2012,07,01,05,02,12.50
2012,07,01,05,03,12.40
2012,07,01,05,04,12.40
2012,07,01,05,05,12.40
2012,07,01,05,06,12.40
2012,07,01,05,07,12.40
2012,07,01,05,08,12.40
2012,07,01,05,09,12.40
2012,07,01,05,10,12.40
2012,07,01,05,11,12.40
2012,07,01,05,12,12.40
2012,07,01,05,13,12.40
2012,07,01,05,14,12.30
2012,07,01,05,15,12.30
2012,07,01,05,16,12.30
2012,07,01,05,17,12.30
2012,07,01,05,18,12.30
2012,07,01,05,19,12.30
2012,07,01,05,20,12.30
2012,07,01,05,21,12.30
2012,07,01,05,22,12.20
2012,07,01,05,23,12.20
2012,07,01,05,24,12.20
2012,07,01,05,25,12.20
2012,07,01,05,26,12.20
2012,07,01,05,27,12.20
2012,07,01,05,28,12.30
2012,07,01,05,29,12.30
2012,07,01,05,30,12.30
2012,07,01,05,31,12.30
2012,07,01,05,32,12.30
2012,07,01,05,33,12.30
2012,07,01,05,34,12.30
2012,07,01,05,35,12.30
2012,07,01,05,36,12.30
2012,07,01,05,37,12.30
2012,07,01,05,38,12.30
2012,07,01,05,39,12.20
2012,07,01,05,40,12.20
2012,07,01,05,41,12.20
2012,07,01,05,42,12.20
2012,07,01,05,43,12.20
2012,07,01,05,44,12.20
2012,07,01,05,45,12.20
2012,07,01,05,46,12.10
2012,07,01,05,47,12.10
2012,07,01,05,48,12.10
2012,07,01,05,49,12.10
2012,07,01,05,50,12.10
2012,07,01,05,51,12.00
2012,07,01,05,52,12.00
2012,07,01,05,53,12.00
2012,07,01,05,54,12.00
2012,07,01,05,55,12.00
2012,07,01,05,56,12.00
2012,07,01,05,57,12.00
2012,07,01,05,58,12.00
2012,07,01,05,59,12.00
2012,07,01,06,00,12.00
2012,07,01,06,01,12.00
2012,07,01,06,02,11.90
2012,07,01,06,03,11.90
2012,07,01,06,04,11.90
2012,07,01,06,05,11.90
2012,07,01,06,06,11.80
2012,07,01,06,07,11.80
2012,07,01,06,08,11.80
2012,07,01,06,09,11.90
2012,07,01,06,10,11.90
2012,07,01,06,11,11.80
2012,07,01,06,12,11.80
2012,07,01,06,13,11.80
2012,07,01,06,14,11.80
2012,07,01,06,15,11.80
2012,07,01,06,16,11.80
2012,07,01,06,17,11.80
2012,07,01,06,18,11.80
2012,07,01,06,19,11.80
2012,07,01,06,20,11.80
2012,07,01,06,21,11.80
2012,07,01,06,22,11.80
2012,07,01,06,23,11.80
2012,07,01,06,24,11.70
2012,07,01,06,25,11.70
2012,07,01,06,26,11.80
2012,07,01,06,27,11.80
2012,07,01,06,28,11.80
2012,07,01,06,29,11.80
2012,07,01,06,30,11.80
2012,07,01,06,31,11.80
2012,07,01,06,32,11.80
2012,07,01,06,33,11.80
2012,07,01,06,34,11.90
2012,07,01,06,35,11.90
2012,07,01,06,36,11.90
2012,07,01,06,37,11.90
2012,07,01,06,38,11.90
2012,07,01,06,39,12.00
2012,07,01,06,40,12.00
2012,07,01,06,41,12.00
2012,07,01,06,42,12.00
2012,07,01,06,43,12.10
2012,07,01,06,44,12.10
2012,07,01,06,45,12.10
2012,07,01,06,46,12.20
2012,07,01,06,47,12.20
2012,07,01,06,48,12.20
2012,07,01,06,49,12.20
2012,07,01,06,50,12.30
2012,07,01,06,51,12.30
2012,07,01,06,52,12.30
2012,07,01,06,53,12.40
2012,07,01,06,54,12.40
2012,07,01,06,55,12.40
2012,07,01,06,56,12.50
2012,07,01,06,57,12.60
2012,07,01,06,58,12.60
2012,07,01,06,59,12.60
2012,07,01,07,00,12.70
2012,07,01,07,01,12.70
2012,07,01,07,02,12.80
2012,07,01,07,03,12.80
2012,07,01,07,04,12.80
2012,07,01,07,05,12.80
2012,07,01,07,06,12.90
2012,07,01,07,07,12.90
2012,07,01,07,08,12.90
2012,07,01,07,09,13.00
2012,07,01,07,10,13.00
2012,07,01,07,11,13.00
2012,07,01,07,12,13.10
2012,07,01,07,13,13.10
2012,07,01,07,14,13.10
2012,07,01,07,15,13.20
2012,07,01,07,16,13.20
2012,07,01,07,17,13.20
2012,07,01,07,18,13.20
2012,07,01,07,19,13.30
2012,07,01,07,20,13.30
2012,07,01,07,21,13.30
2012,07,01,07,22,13.30
2012,07,01,07,23,13.40
2012,07,01,07,24,13.40
2012,07,01,07,25,13.30
2012,07,01,07,26,13.40
2012,07,01,07,27,13.40
2012,07,01,07,28,13.40
2012,07,01,07,29,13.40
2012,07,01,07,30,13.40
2012,07,01,07,31,13.50
2012,07,01,07,32,13.50
2012,07,01,07,33,13.50
2012,07,01,07,34,13.60
2012,07,01,07,35,13.60
2012,07,01,07,36,13.60
2012,07,01,07,37,13.60
2012,07,01,07,38,13.60
2012,07,01,07,39,13.70
2012,07,01,07,40,13.70
2012,07,01,07,41,13.70
2012,07,01,07,42,13.80
2012,07,01,07,43,13.80
2012,07,01,07,44,13.80
2012,07,01,07,45,13.80
2012,07,01,07,46,13.90
2012,07,01,07,47,13.90
2012,07,01,07,48,14.00
2012,07,01,07,49,14.00
2012,07,01,07,50,14.10
2012,07,01,07,51,14.10
2012,07,01,07,52,14.20
2012,07,01,07,53,14.20
2012,07,01,07,54,14.20
2012,07,01,07,55,14.30
2012,07,01,07,56,14.30
2012,07,01,07,57,14.30
2012,07,01,07,58,14.40
2012,07,01,07,59,14.40
2012,07,01,08,00,14.40
2012,07,01,08,01,14.40
2012,07,01,08,02,14.40
2012,07,01,08,03,14.40
2012,07,01,08,04,14.40
2012,07,01,08,05,14.40
2012,07,01,08,06,14.50
2012,07,01,08,07,14.50
2012,07,01,08,08,14.50
2012,07,01,08,09,14.60
2012,07,01,08,10,14.60
2012,07,01,08,11,14.60
2012,07,01,08,12,14.60
2012,07,01,08,13,14.60
2012,07,01,08,14,14.60
2012,07,01,08,15,14.70
2012,07,01,08,16,14.70
2012,07,01,08,17,14.70
2012,07,01,08,18,14.70
2012,07,01,08,19,14.80
2012,07,01,08,20,14.80
2012,07,01,08,21,14.80
2012,07,01,08,22,14.80
2012,07,01,08,23,14.80
2012,07,01,08,24,14.80
2012,07,01,08,25,14.80
2012,07,01,08,26,14.80
2012,07,01,08,27,14.80
2012,07,01,08,28,14.90
2012,07,01,08,29,14.90
2012,07,01,08,30,15.00
2012,07,01,08,31,15.00
2012,07,01,08,32,15.00
2012,07,01,08,33,15.00
2012,07,01,08,34,15.00
2012,07,01,08,35,15.00
2012,07,01,08,36,15.00
2012,07,01,08,37,15.00
2012,07,01,08,38,15.00
2012,07,01,08,39,15.00
2012,07,01,08,40,15.00
2012,07,01,08,41,15.10
2012,07,01,08,42,15.10
2012,07,01,08,43,15.10
2012,07,01,08,44,15.10
2012,07,01,08,45,15.10
2012,07,01,08,46,15.10
2012,07,01,08,47,15.20
2012,07,01,08,48,15.20
2012,07,01,08,49,15.20
2012,07,01,08,50,15.20
2012,07,01,08,51,15.30
2012,07,01,08,52,15.30
2012,07,01,08,53,15.30
2012,07,01,08,54,15.30
2012,07,01,08,55,15.40
2012,07,01,08,56,15.40
2012,07,01,08,57,15.40
2012,07,01,08,58,15.50
2012,07,01,08,59,15.50
2012,07,01,09,00,15.60
2012,07,01,09,01,15.60
2012,07,01,09,02,15.60
2012,07,01,09,03,15.60
2012,07,01,09,04,15.60
2012,07,01,09,05,15.60
2012,07,01,09,06,15.70
2012,07,01,09,07,15.70
2012,07,01,09,08,15.70
2012,07,01,09,09,15.70
2012,07,01,09,10,15.70
2012,07,01,09,11,15.80
2012,07,01,09,12,15.80
2012,07,01,09,13,15.80
2012,07,01,09,14,15.80
2012,07,01,09,15,15.80
2012,07,01,09,16,15.80
2012,07,01,09,17,15.80
2012,07,01,09,18,15.80
2012,07,01,09,19,15.80
2012,07,01,09,20,15.80
2012,07,01,09,21,15.80
2012,07,01,09,22,15.80
2012,07,01,09,23,15.80
2012,07,01,09,24,15.70
2012,07,01,09,25,15.70
2012,07,01,09,26,15.70
2012,07,01,09,27,15.70
2012,07,01,09,28,15.60
2012,07,01,09,29,15.60
2012,07,01,09,30,15.60
2012,07,01,09,31,15.60
2012,07,01,09,32,15.60
2012,07,01,09,33,15.50
2012,07,01,09,34,15.50
2012,07,01,09,35,15.50
2012,07,01,09,36,15.40
2012,07,01,09,37,15.40
2012,07,01,09,38,15.40
2012,07,01,09,39,15.40
2012,07,01,09,40,15.40
2012,07,01,09,41,15.40
2012,07,01,09,42,15.30
2012,07,01,09,43,15.30
2012,07,01,09,44,15.30
2012,07,01,09,45,15.40
2012,07,01,09,46,15.40
2012,07,01,09,47,15.40
2012,07,01,09,48,15.40
2012,07,01,09,49,15.40
2012,07,01,09,50,15.40
2012,07,01,09,51,15.50
2012,07,01,09,52,15.50
2012,07,01,09,53,15.50
2012,07,01,09,54,15.50
2012,07,01,09,55,15.50
2012,07,01,09,56,15.50
2012,07,01,09,57,15.50
2012,07,01,09,58,15.60
2012,07,01,09,59,15.60
2012,07,01,10,00,15.60
2012,07,01,10,01,15.60
2012,07,01,10,02,15.60
2012,07,01,10,03,15.70
2012,07,01,10,04,15.70
2012,07,01,10,05,15.70
2012,07,01,10,06,15.70
2012,07,01,10,07,15.80
2012,07,01,10,08,15.80
2012,07,01,10,09,15.70
2012,07,01,10,10,15.70
2012,07,01,10,11,15.70
2012,07,01,10,12,15.70
2012,07,01,10,13,15.70
2012,07,01,10,14,15.70
2012,07,01,10,15,15.70
2012,07,01,10,16,15.80
2012,07,01,10,17,15.80
2012,07,01,10,18,15.80
2012,07,01,10,19,15.90
2012,07,01,10,20,15.90
2012,07,01,10,21,15.90
2012,07,01,10,22,15.90
2012,07,01,10,23,15.90
2012,07,01,10,24,15.90
2012,07,01,10,25,16.00
2012,07,01,10,26,15.90
2012,07,01,10,27,16.00
2012,07,01,10,28,16.00
2012,07,01,10,29,16.00
2012,07,01,10,30,16.00
2012,07,01,10,31,16.00
2012,07,01,10,32,16.00
2012,07,01,10,33,16.00
2012,07,01,10,34,16.00
2012,07,01,10,35,16.10
2012,07,01,10,36,16.10
2012,07,01,10,37,16.10
2012,07,01,10,38,16.10
2012,07,01,10,39,16.10
2012,07,01,10,40,16.20
2012,07,01,10,41,16.20
2012,07,01,10,42,16.20
2012,07,01,10,43,16.20
2012,07,01,10,44,16.20
2012,07,01,10,45,16.20
2012,07,01,10,46,16.20
2012,07,01,10,47,16.20
2012,07,01,10,48,16.20
2012,07,01,10,49,16.20
2012,07,01,10,50,16.20
2012,07,01,10,51,16.20
2012,07,01,10,52,16.10
2012,07,01,10,53,16.10
2012,07,01,10,54,16.10
2012,07,01,10,55,16.10
2012,07,01,10,56,16.10
2012,07,01,10,57,16.10
2012,07,01,10,58,16.10
2012,07,01,10,59,16.10
2012,07,01,11,00,16.10
2012,07,01,11,01,16.10
2012,07,01,11,02,16.10
2012,07,01,11,03,16.10
2012,07,01,11,04,16.20
2012,07,01,11,05,16.20
2012,07,01,11,06,16.20
2012,07,01,11,07,16.20
2012,07,01,11,08,16.20
2012,07,01,11,09,16.20
2012,07,01,11,10,16.20
2012,07,01,11,11,16.30
2012,07,01,11,12,16.30
2012,07,01,11,13,16.30
2012,07,01,11,14,16.30
2012,07,01,11,15,16.30
2012,07,01,11,16,16.40
2012,07,01,11,17,16.40
2012,07,01,11,18,16.40
2012,07,01,11,19,16.40
2012,07,01,11,20,16.40
2012,07,01,11,21,16.50
2012,07,01,11,22,16.50
2012,07,01,11,23,16.50
2012,07,01,11,24,16.60
2012,07,01,11,25,16.60
2012,07,01,11,26,16.60
2012,07,01,11,27,16.60
2012,07,01,11,28,16.60
2012,07,01,11,29,16.60
2012,07,01,11,30,16.70
2012,07,01,11,31,16.70
2012,07,01,11,32,16.70
2012,07,01,11,33,16.70
2012,07,01,11,34,16.70
2012,07,01,11,35,16.60
2012,07,01,11,36,16.60
2012,07,01,11,37,16.60
2012,07,01,11,38,16.60
2012,07,01,11,39,16.60
2012,07,01,11,40,16.60
2012,07,01,11,41,16.60
2012,07,01,11,42,16.60
2012,07,01,11,43,16.70
2012,07,01,11,44,16.70
2012,07,01,11,45,16.70
2012,07,01,11,46,16.70
2012,07,01,11,47,16.70
2012,07,01,11,48,16.70
2012,07,01,11,49,16.80
2012,07,01,11,50,16.80
2012,07,01,11,51,16.80
2012,07,01,11,52,16.90
2012,07,01,11,53,16.90
2012,07,01,11,54,16.90
2012,07,01,11,55,16.80
2012,07,01,11,56,16.80
2012,07,01,11,57,16.80
2012,07,01,11,58,16.90
2012,07,01,11,59,16.90
2012,07,01,12,00,16.90
2012,07,01,12,01,16.90
2012,07,01,12,02,16.90
2012,07,01,12,03,16.90
2012,07,01,12,04,16.90
2012,07,01,12,05,16.80
2012,07,01,12,06,16.80
2012,07,01,12,07,16.80
2012,07,01,12,08,16.80
2012,07,01,12,09,16.90
2012,07,01,12,10,16.90
2012,07,01,12,11,16.90
2012,07,01,12,12,17.00
2012,07,01,12,13,17.10
2012,07,01,12,14,17.10
2012,07,01,12,15,17.20
2012,07,01,12,16,17.30
2012,07,01,12,17,17.40
2012,07,01,12,18,17.50
2012,07,01,12,19,17.60
2012,07,01,12,20,17.70
2012,07,01,12,21,17.70
2012,07,01,12,22,17.70
2012,07,01,12,23,17.70
2012,07,01,12,24,17.60
2012,07,01,12,25,17.60
2012,07,01,12,26,17.60
2012,07,01,12,27,17.60
2012,07,01,12,28,17.60
2012,07,01,12,29,17.60
2012,07,01,12,30,17.60
2012,07,01,12,31,17.60
2012,07,01,12,32,17.60
2012,07,01,12,33,17.70
2012,07,01,12,34,17.70
2012,07,01,12,35,17.80
2012,07,01,12,36,17.80
2012,07,01,12,37,17.80
2012,07,01,12,38,17.80
2012,07,01,12,39,17.80
2012,07,01,12,40,17.90
2012,07,01,12,41,17.90
2012,07,01,12,42,17.90
2012,07,01,12,43,17.90
2012,07,01,12,44,17.90
2012,07,01,12,45,17.90
2012,07,01,12,46,17.90
2012,07,01,12,47,18.00
2012,07,01,12,48,18.00
2012,07,01,12,49,18.00
2012,07,01,12,50,18.00
2012,07,01,12,51,18.00
2012,07,01,12,52,18.00
2012,07,01,12,53,18.00
2012,07,01,12,54,18.00
2012,07,01,12,55,18.10
2012,07,01,12,56,18.10
2012,07,01,12,57,18.20
2012,07,01,12,58,18.20
2012,07,01,12,59,18.30
2012,07,01,13,00,18.30
2012,07,01,13,01,18.20
2012,07,01,13,02,18.20
2012,07,01,13,03,18.10
2012,07,01,13,04,18.10
2012,07,01,13,05,18.20
2012,07,01,13,06,18.20
2012,07,01,13,07,18.20
2012,07,01,13,08,18.20
2012,07,01,13,09,18.20
2012,07,01,13,10,18.20
2012,07,01,13,11,18.20
2012,07,01,13,12,18.20
2012,07,01,13,13,18.30
2012,07,01,13,14,18.30
2012,07,01,13,15,18.30
2012,07,01,13,16,18.30
2012,07,01,13,17,18.30
2012,07,01,13,18,18.30
2012,07,01,13,19,18.30
2012,07,01,13,20,18.30
2012,07,01,13,21,18.30
2012,07,01,13,22,18.30
2012,07,01,13,23,18.40
2012,07,01,13,24,18.50
2012,07,01,13,25,18.40
2012,07,01,13,26,18.40
2012,07,01,13,27,18.40
2012,07,01,13,28,18.40
2012,07,01,13,29,18.30
2012,07,01,13,30,18.30
2012,07,01,13,31,18.20
2012,07,01,13,32,18.20
2012,07,01,13,33,18.20
2012,07,01,13,34,18.30
2012,07,01,13,35,18.30
2012,07,01,13,36,18.40
2012,07,01,13,37,18.40
2012,07,01,13,38,18.50
2012,07,01,13,39,18.50
2012,07,01,13,40,18.60
2012,07,01,13,41,18.60
2012,07,01,13,42,18.70
2012,07,01,13,43,18.70
2012,07,01,13,44,18.70
2012,07,01,13,45,18.70
2012,07,01,13,46,18.80
2012,07,01,13,47,18.80
2012,07,01,13,48,18.80
2012,07,01,13,49,18.80
2012,07,01,13,50,18.80
2012,07,01,13,51,18.80
2012,07,01,13,52,18.90
2012,07,01,13,53,18.90
2012,07,01,13,54,19.00
2012,07,01,13,55,19.10
2012,07,01,13,56,19.10
2012,07,01,13,57,19.20
2012,07,01,13,58,19.20
2012,07,01,13,59,19.20
2012,07,01,14,00,19.20
2012,07,01,14,01,19.20
2012,07,01,14,02,19.20
2012,07,01,14,03,19.10
2012,07,01,14,04,19.10
2012,07,01,14,05,19.10
2012,07,01,14,06,19.20
2012,07,01,14,07,19.20
2012,07,01,14,08,19.20
2012,07,01,14,09,19.20
2012,07,01,14,10,19.20
2012,07,01,14,11,19.20
2012,07,01,14,12,19.20
2012,07,01,14,13,19.20
2012,07,01,14,14,19.20
2012,07,01,14,15,19.20
2012,07,01,14,16,19.20
2012,07,01,14,17,19.20
2012,07,01,14,18,19.20
2012,07,01,14,19,19.10
2012,07,01,14,20,19.10
2012,07,01,14,21,19.10
2012,07,01,14,22,19.20
2012,07,01,14,23,19.20
2012,07,01,14,24,19.20
2012,07,01,14,25,19.20
2012,07,01,14,26,19.20
2012,07,01,14,27,19.30
2012,07,01,14,28,19.30
2012,07,01,14,29,19.30
2012,07,01,14,30,19.30
2012,07,01,14,31,19.30
2012,07,01,14,32,19.30
2012,07,01,14,33,19.30
2012,07,01,14,34,19.30
2012,07,01,14,35,19.30
2012,07,01,14,36,19.30
2012,07,01,14,37,19.30
2012,07,01,14,38,19.20
2012,07,01,14,39,19.20
2012,07,01,14,40,19.20
2012,07,01,14,41,19.20
2012,07,01,14,42,19.20
2012,07,01,14,43,19.10
2012,07,01,14,44,19.10
2012,07,01,14,45,19.10
2012,07,01,14,46,19.20
2012,07,01,14,47,19.20
2012,07,01,14,48,19.20
2012,07,01,14,49,19.30
2012,07,01,14,50,19.30
2012,07,01,14,51,19.30
2012,07,01,14,52,19.30
2012,07,01,14,53,19.40
2012,07,01,14,54,19.40
2012,07,01,14,55,19.30
2012,07,01,14,56,19.30
2012,07,01,14,57,19.30
2012,07,01,14,58,19.30
2012,07,01,14,59,19.20
2012,07,01,15,00,19.20
2012,07,01,15,01,19.20
2012,07,01,15,02,19.10
2012,07,01,15,03,19.10
2012,07,01,15,04,19.10
2012,07,01,15,05,19.10
2012,07,01,15,06,19.10
2012,07,01,15,07,19.10
2012,07,01,15,08,19.20
2012,07,01,15,09,19.20
2012,07,01,15,10,19.20
2012,07,01,15,11,19.10
2012,07,01,15,12,19.10
2012,07,01,15,13,19.00
2012,07,01,15,14,19.00
2012,07,01,15,15,19.00
2012,07,01,15,16,19.10
2012,07,01,15,17,19.10
2012,07,01,15,18,19.10
2012,07,01,15,19,19.10
2012,07,01,15,20,19.20
2012,07,01,15,21,19.20
2012,07,01,15,22,19.20
2012,07,01,15,23,19.20
2012,07,01,15,24,19.30
2012,07,01,15,25,19.30
2012,07,01,15,26,19.30
2012,07,01,15,27,19.40
2012,07,01,15,28,19.40
2012,07,01,15,29,19.40
2012,07,01,15,30,19.40
2012,07,01,15,31,19.50
2012,07,01,15,32,19.50
2012,07,01,15,33,19.50
2012,07,01,15,34,19.60
2012,07,01,15,35,19.60
2012,07,01,15,36,19.60
2012,07,01,15,37,19.60
2012,07,01,15,38,19.60
2012,07,01,15,39,19.60
2012,07,01,15,40,19.60
2012,07,01,15,41,19.60
2012,07,01,15,42,19.60
2012,07,01,15,43,19.50
2012,07,01,15,44,19.50
2012,07,01,15,45,19.50
2012,07,01,15,46,19.50
2012,07,01,15,47,19.50
2012,07,01,15,48,19.50
2012,07,01,15,49,19.50
2012,07,01,15,50,19.60
2012,07,01,15,51,19.60
2012,07,01,15,52,19.60
2012,07,01,15,53,19.60
2012,07,01,15,54,19.60
2012,07,01,15,55,19.70
2012,07,01,15,56,19.70
2012,07,01,15,57,19.70
2012,07,01,15,58,19.70
2012,07,01,15,59,19.80
2012,07,01,16,00,19.80
2012,07,01,16,01,19.90
2012,07,01,16,02,19.90
2012,07,01,16,03,20.00
2012,07,01,16,04,20.00
2012,07,01,16,05,20.00
2012,07,01,16,06,20.10
2012,07,01,16,07,20.10
2012,07,01,16,08,20.10
2012,07,01,16,09,20.20
2012,07,01,16,10,20.20
2012,07,01,16,11,20.20
2012,07,01,16,12,20.20
2012,07,01,16,13,20.20
2012,07,01,16,14,20.20
2012,07,01,16,15,20.10
2012,07,01,16,16,20.10
2012,07,01,16,17,20.10
2012,07,01,16,18,20.00
2012,07,01,16,19,20.00
2012,07,01,16,20,20.00
2012,07,01,16,21,20.10
2012,07,01,16,22,20.10
2012,07,01,16,23,20.10
2012,07,01,16,24,20.20
2012,07,01,16,25,20.20
2012,07,01,16,26,20.30
2012,07,01,16,27,20.40
2012,07,01,16,28,20.40
2012,07,01,16,29,20.50
2012,07,01,16,30,20.60
2012,07,01,16,31,20.60
2012,07,01,16,32,20.70
2012,07,01,16,33,20.70
2012,07,01,16,34,20.70
2012,07,01,16,35,20.70
2012,07,01,16,36,20.60
2012,07,01,16,37,20.60
2012,07,01,16,38,20.60
2012,07,01,16,39,20.50
2012,07,01,16,40,20.50
2012,07,01,16,41,20.40
2012,07,01,16,42,20.40
2012,07,01,16,43,20.40
2012,07,01,16,44,20.40
2012,07,01,16,45,20.40
2012,07,01,16,46,20.40
2012,07,01,16,47,20.30
2012,07,01,16,48,20.30
2012,07,01,16,49,20.20
2012,07,01,16,50,20.20
2012,07,01,16,51,20.10
2012,07,01,16,52,20.00
2012,07,01,16,53,20.00
2012,07,01,16,54,19.90
2012,07,01,16,55,19.90
2012,07,01,16,56,19.80
2012,07,01,16,57,19.80
2012,07,01,16,58,19.70
2012,07,01,16,59,19.70
2012,07,01,17,00,19.80
2012,07,01,17,01,19.70
2012,07,01,17,02,19.70
2012,07,01,17,03,19.70
2012,07,01,17,04,19.70
2012,07,01,17,05,19.80
2012,07,01,17,06,19.80
2012,07,01,17,07,19.80
2012,07,01,17,08,19.80
2012,07,01,17,09,19.80
2012,07,01,17,10,19.80
2012,07,01,17,11,19.80
2012,07,01,17,12,19.80
2012,07,01,17,13,19.90
2012,07,01,17,14,19.90
2012,07,01,17,15,19.90
2012,07,01,17,16,20.00
2012,07,01,17,17,19.90
2012,07,01,17,18,19.90
2012,07,01,17,19,19.90